TimeEET,TemperatureF,Dew PointF,Humidity,Sea Level PressureIn,VisibilityMPH,Wind Direction,Wind SpeedMPH,Gust SpeedMPH,PrecipitationIn,Events,Conditions,WindDirDegrees,DateUTC
12:20 AM,50.0,50.0,100,29.86,6.2,ENE,4.6,-,N/A,,Mostly Cloudy,70,2012-12-07 22:20:00
12:50 AM,50.0,50.0,100,29.86,6.2,NE,5.8,-,N/A,,Mostly Cloudy,50,2012-12-07 22:50:00
1:50 AM,51.8,50.0,94,29.86,6.2,SE,2.3,-,N/A,,Mostly Cloudy,140,2012-12-07 23:50:00
2:00 AM,51,49,91,29.87,6,SE,2.3,,,Rain,Light Rain Showers,140,2012-12-08 00:00:00
2:20 AM,48.2,48.2,100,29.86,6.2,Variable,2.3,-,N/A,,Mostly Cloudy,0,2012-12-08 00:20:00
2:50 AM,48.2,48.2,100,29.86,6.2,WNW,4.6,-,N/A,,Mostly Cloudy,300,2012-12-08 00:50:00
3:20 AM,48.2,48.2,100,29.86,6.2,WNW,4.6,-,N/A,,Mostly Cloudy,300,2012-12-08 01:20:00
3:50 AM,48.2,48.2,100,29.86,6.2,North,3.5,-,N/A,,Mostly Cloudy,10,2012-12-08 01:50:00
4:20 AM,48.2,48.2,100,29.86,6.2,North,3.5,-,N/A,,Mostly Cloudy,360,2012-12-08 02:20:00
4:50 AM,48.2,46.4,93,29.89,6.2,NE,5.8,-,N/A,,Mostly Cloudy,40,2012-12-08 02:50:00
5:20 AM,48.2,48.2,100,29.89,6.2,NE,6.9,-,N/A,,Mostly Cloudy,40,2012-12-08 03:20:00
5:50 AM,48.2,48.2,100,29.89,6.2,NE,6.9,-,N/A,Rain,Light Rain Showers,50,2012-12-08 03:50:00
6:20 AM,50.0,50.0,100,29.92,6.2,NE,10.4,-,N/A,Rain,Light Rain Showers,40,2012-12-08 04:20:00
6:50 AM,50.0,50.0,100,29.92,6.2,NE,6.9,-,N/A,,Mostly Cloudy,50,2012-12-08 04:50:00
7:20 AM,51.8,51.8,100,29.95,6.2,NNE,10.4,-,N/A,,Mostly Cloudy,30,2012-12-08 05:20:00
7:50 AM,51.8,51.8,100,29.95,6.2,NE,9.2,-,N/A,,Mostly Cloudy,50,2012-12-08 05:50:00
8:00 AM,52,51,97,29.95,6,NE,9.2,,,,Partly Cloudy,50,2012-12-08 06:00:00
8:20 AM,53.6,51.8,94,29.95,6.2,North,4.6,-,N/A,,Mostly Cloudy,10,2012-12-08 06:20:00
8:50 AM,55.4,51.8,88,29.95,6.2,NE,5.8,-,N/A,,Scattered Clouds,40,2012-12-08 06:50:00
9:20 AM,57.2,50.0,77,29.98,6.2,NNE,9.2,-,N/A,,Scattered Clouds,20,2012-12-08 07:20:00
9:50 AM,59.0,48.2,67,29.98,6.2,NE,11.5,-,N/A,,Scattered Clouds,50,2012-12-08 07:50:00
10:20 AM,59.0,46.4,63,29.98,6.2,NE,11.5,-,N/A,,Scattered Clouds,50,2012-12-08 08:20:00
10:50 AM,59.0,42.8,55,29.98,6.2,NNE,10.4,-,N/A,,Scattered Clouds,30,2012-12-08 08:50:00
11:20 AM,62.6,41.0,45,29.98,6.2,NE,9.2,-,N/A,,Scattered Clouds,40,2012-12-08 09:20:00
11:50 AM,62.6,39.2,42,29.98,6.2,NE,11.5,-,N/A,,Scattered Clouds,40,2012-12-08 09:50:00
12:20 PM,62.6,42.8,48,29.98,6.2,NE,11.5,-,N/A,,Scattered Clouds,50,2012-12-08 10:20:00
12:50 PM,62.6,41.0,45,29.98,6.2,NE,6.9,-,N/A,,Scattered Clouds,50,2012-12-08 10:50:00
1:20 PM,62.6,41.0,45,29.98,6.2,ESE,5.8,-,N/A,,Scattered Clouds,110,2012-12-08 11:20:00
1:50 PM,64.4,41.0,42,29.98,6.2,East,5.8,-,N/A,,Scattered Clouds,90,2012-12-08 11:50:00
2:00 PM,64,42,33,29.98,6,East,5.8,,,,Scattered Clouds,90,2012-12-08 12:00:00
2:20 PM,62.6,42.8,48,29.98,6.2,ESE,8.1,-,N/A,,Scattered Clouds,120,2012-12-08 12:20:00
2:50 PM,62.6,42.8,48,29.98,6.2,East,5.8,-,N/A,,Scattered Clouds,100,2012-12-08 12:50:00
3:50 PM,59.0,44.6,59,29.98,6.2,ESE,3.5,-,N/A,,Scattered Clouds,110,2012-12-08 13:50:00
4:20 PM,59.0,44.6,59,29.98,6.2,SE,3.5,-,N/A,,Scattered Clouds,140,2012-12-08 14:20:00
4:50 PM,55.4,46.4,72,30.01,6.2,ESE,2.3,-,N/A,,Scattered Clouds,110,2012-12-08 14:50:00
5:20 PM,53.6,46.4,77,30.01,6.2,ENE,2.3,-,N/A,,Scattered Clouds,60,2012-12-08 15:20:00
5:50 PM,50.0,46.4,87,30.04,6.2,NNE,3.5,-,N/A,,Scattered Clouds,20,2012-12-08 15:50:00
6:20 PM,50.0,48.2,94,30.04,6.2,NE,6.9,-,N/A,,Scattered Clouds,40,2012-12-08 16:20:00
6:50 PM,48.2,48.2,100,30.04,6.2,NE,6.9,-,N/A,,Scattered Clouds,40,2012-12-08 16:50:00
7:20 PM,48.2,46.4,93,30.06,6.2,NE,4.6,-,N/A,,Mostly Cloudy,40,2012-12-08 17:20:00
7:50 PM,48.2,46.4,93,30.06,6.2,NNE,5.8,-,N/A,,Mostly Cloudy,30,2012-12-08 17:50:00
8:00 PM,48,47,93,30.07,6,NNE,5.8,,,,Scattered Clouds,30,2012-12-08 18:00:00
8:20 PM,48.2,48.2,100,30.06,6.2,NNE,4.6,-,N/A,,Mostly Cloudy,30,2012-12-08 18:20:00
8:50 PM,48.2,46.4,93,30.06,6.2,NE,6.9,-,N/A,,Mostly Cloudy,40,2012-12-08 18:50:00
9:20 PM,48.2,46.4,93,30.06,6.2,NE,8.1,-,N/A,,Mostly Cloudy,40,2012-12-08 19:20:00
9:50 PM,50.0,48.2,94,30.06,6.2,NNE,8.1,-,N/A,,Mostly Cloudy,30,2012-12-08 19:50:00
10:20 PM,50.0,46.4,87,30.06,6.2,NNE,6.9,-,N/A,,Mostly Cloudy,30,2012-12-08 20:20:00
10:50 PM,50.0,46.4,87,30.06,6.2,NE,8.1,-,N/A,,Mostly Cloudy,50,2012-12-08 20:50:00
11:20 PM,50.0,46.4,87,30.06,6.2,NNE,5.8,-,N/A,,Mostly Cloudy,20,2012-12-08 21:20:00
11:50 PM,51.8,46.4,82,30.09,6.2,NE,4.6,-,N/A,,Mostly Cloudy,50,2012-12-08 21:50:00